Regional Weather Roundup
Issued by NWS

Home | Current Version | Previous Version | Text Only | Print | Product List | Glossary Off
Versions: 1 2 3 4 5 6 7 8 9 10 11 12 13 14 15 16 17 18 19 20 21 22 23 24 25 26 27 28 29 30 31 32 33 34 35 36 37 38 39 40 41 42 43 44 45 46 47 48 49 50

000
ASUS45 KABQ 060410
RWRNM
NEW MEXICO REGIONAL WEATHER ROUNDUP
NATIONAL WEATHER SERVICE ALBUQUERQUE NM
1000 PM MDT SUN JUL 05 2015

NOTE: "FAIR" MEANS FEW OR NO CLOUDS BELOW 12,000 FEET AGL WITH NO
       SIGNIFICANT WEATHER OR OBSTRUCTIONS TO VISION.

      THIS PRODUCT IS RELEASED AS TWO VERSIONS.  ONE VERSION NEAR
      THE TOP OF THE HOUR CONTAINING PRELIMINARY DATA FROM ALBUQUERQUE
      AND OTHER STATIONS.  A FINAL VERSION WITH ADDITIONAL DATA IS
      ISSUED ABOUT 10 MINUTES AFTER THE HOUR.

NMZ501-503-504-510>518-060500-
NORTHWEST PLATEAU/NORTHCENTRAL MOUNTAINS

CITY           SKY/WX    TMP DP  RH WIND       PRES   REMARKS
FARMINGTON     CLEAR     76  46  34 W9        30.08R
LOS ALAMOS     LGT RAIN  60  57  89 SW12      30.25F
SANTA FE       CLOUDY    67  53  61 N12       30.18R
TAOS           CLOUDY    63  48  59 NW12      30.27R
ANGEL FIRE     MOCLDY    61  51  70 W12G25    30.33R

$$
NMZ402-403-502-505>509-060500-
WESTCENTRAL MOUNTAINS/SOUTHWEST MOUNTAINS

CITY           SKY/WX    TMP DP  RH WIND       PRES   REMARKS
GALLUP         RAIN      62  58  86 S10       30.25F
GRANTS         LGT RAIN  62  58  87 N5        30.29R
SILVER CITY      N/A     66  61  82 NW17      30.17R

$$
NMZ407-409-411-412-060500-
SOUTHERN DESERTS

CITY           SKY/WX    TMP DP  RH WIND       PRES   REMARKS
LORDSBURG      LGT RAIN  72  59  64 NW13      30.11R
DEMING         PTCLDY    76  59  55 W9        30.06R
LAS CRUCES     PTCLDY    81  56  43 W15G21    30.06R
HOLLOMAN AFB   PTCLDY    78  64  63 SE2       30.00R
ALAMOGORDO     MOCLDY    79  57  47 S7        30.02R
T OR C         MOCLDY    76  58  53 NW8       30.07R

$$
NMZ519>523-060500-
CENTRAL VALLEYS/CENTRAL HIGHLANDS

CITY           SKY/WX    TMP DP  RH WIND       PRES   REMARKS
ALBUQUERQUE    CLOUDY    71  57  61 W3        30.14R
DOUBLE EAGLE   CLOUDY    66  57  72 NE7       30.17R
MORIARTY ARPT    N/A     69  54  58 N8        30.18R
CLINES CORNERS MOCLDY    63  55  75 NW12      30.21R
BELEN          MOCLDY    70  59  69 NE5       30.14R
SOCORRO        MOCLDY    74  58  57 CALM      30.09R

$$
NMZ524>526-539-540-060500-
SOUTHCENTRAL MOUNTAINS

CITY           SKY/WX    TMP DP  RH WIND       PRES   REMARKS
RUIDOSO        MOCLDY    68  55  64 CALM      30.23R

$$
NMZ527>531-060500-
NORTHEAST HIGHLANDS/NORTHEAST PLAINS

CITY           SKY/WX    TMP DP  RH WIND       PRES   REMARKS
LAS VEGAS      MOCLDY    65  55  70 S9        30.15R
RATON          MOCLDY    69  56  62 SE7       30.08R
CLAYTON        CLEAR     77  57  50 S15       30.00R

$$
NMZ532>537-060500-
EASTCENTRAL PLAINS

CITY           SKY/WX    TMP DP  RH WIND       PRES   REMARKS
TUCUMCARI      PTCLDY    81  57  43 S10       29.94R
CANNON AFB     MOCLDY    74  60  61 S8        30.00R
CLOVIS AIRPORT MOCLDY    75  57  53 S9          N/A

$$
NMZ028-029-538-060500-
SOUTHEAST PLAINS

CITY           SKY/WX    TMP DP  RH WIND       PRES   REMARKS
ROSWELL        MOCLDY    79  59  50 SW7       29.95R
ARTESIA        MOCLDY    84  61  45 SW8G15    29.96R
CARLSBAD       MOCLDY    86  61  42 W9        29.95R
HOBBS          MOCLDY    82  64  54 S15       30.00R


$$


USA.gov is the U.S. government's official web portal to all federal, state and local government web resources and services.